Time,TemperatureF,DewpointF,PressureIn,WindDirection,WindDirectionDegrees,WindSpeedMPH,WindSpeedGustMPH,Humidity,HourlyPrecipIn,Conditions,Clouds,dailyrainin,SoftwareType,DateUTC
2013-01-24 00:03:00,21.0,-99.9,-100.00,SE,127,0.0,1.0,-999,-99.99,,,-99.99,,2013-01-24 08:03:00,
2013-01-24 00:13:00,21.0,-99.9,-100.00,SE,127,0.0,1.0,-999,-99.99,,,-99.99,,2013-01-24 08:13:00,
2013-01-24 01:03:00,21.0,-99.9,-100.00,SE,131,0.0,1.0,-999,-99.99,,,-99.99,,2013-01-24 09:03:00,
2013-01-24 01:10:00,19.0,-99.9,-100.00,SE,136,0.0,1.0,-999,-99.99,,,-99.99,,2013-01-24 09:10:00,
2013-01-24 02:03:00,19.0,-99.9,-100.00,SE,136,0.0,1.0,-999,-99.99,,,-99.99,,2013-01-24 10:03:00,
2013-01-24 03:03:00,17.0,-99.9,-100.00,NW,325,0.0,1.0,-999,-99.99,,,-99.99,,2013-01-24 11:03:00,
2013-01-24 03:13:00,17.0,-99.9,-100.00,NW,325,0.0,1.0,-999,-99.99,,,-99.99,,2013-01-24 11:13:00,
2013-01-24 04:03:00,16.0,-99.9,-100.00,NNE,31,0.0,1.0,-999,-99.99,,,-99.99,,2013-01-24 12:03:00,
2013-01-24 05:03:00,15.0,-99.9,-100.00,NNW,329,0.0,1.0,-999,-99.99,,,-99.99,,2013-01-24 13:03:00,
2013-01-24 05:13:00,15.0,-99.9,-100.00,NNW,329,0.0,1.0,-999,-99.99,,,-99.99,,2013-01-24 13:13:00,
2013-01-24 06:03:00,15.0,-99.9,-100.00,West,280,1.0,2.0,-999,-99.99,,,-99.99,,2013-01-24 14:03:00,
2013-01-24 06:13:00,15.0,-99.9,-100.00,West,280,1.0,2.0,-999,-99.99,,,-99.99,,2013-01-24 14:13:00,
2013-01-24 07:04:00,14.0,-99.9,-100.00,NNW,337,1.0,2.0,-999,-99.99,,,-99.99,,2013-01-24 15:04:00,
2013-01-24 08:04:00,15.0,-99.9,-100.00,West,278,0.0,1.0,-999,-99.99,,,-99.99,,2013-01-24 16:04:00,
2013-01-24 09:03:00,15.0,-99.9,-100.00,East,97,0.0,1.0,-999,-99.99,,,-99.99,,2013-01-24 17:03:00,
2013-01-24 09:12:00,15.0,-99.9,-100.00,East,97,0.0,1.0,-999,-99.99,,,-99.99,,2013-01-24 17:12:00,
2013-01-24 10:03:00,17.0,-99.9,-100.00,WSW,251,0.0,1.0,-999,-99.99,,,-99.99,,2013-01-24 18:03:00,
2013-01-24 11:03:00,22.0,-99.9,-100.00,WNW,302,1.0,5.0,-999,-99.99,,,-99.99,,2013-01-24 19:03:00,
2013-01-24 11:13:00,22.0,-99.9,-100.00,WNW,302,1.0,5.0,-999,-99.99,,,-99.99,,2013-01-24 19:13:00,
2013-01-24 14:03:00,24.0,-99.9,-100.00,WNW,299,2.0,7.0,-999,-99.99,,,-99.99,,2013-01-24 22:03:00,
2013-01-24 14:10:00,24.0,-99.9,-100.00,NW,323,2.0,6.0,-999,-99.99,,,-99.99,,2013-01-24 22:10:00,
2013-01-24 15:00:00,23.0,-99.9,-100.00,NW,306,3.0,7.0,-999,-99.99,,,-99.99,,2013-01-24 23:00:00,
2013-01-24 15:03:00,24.0,-99.9,-100.00,NW,323,2.0,6.0,-999,-99.99,,,-99.99,,2013-01-24 23:03:00,
2013-01-24 16:10:00,23.0,-99.9,-100.00,WNW,296,1.0,5.0,-999,-99.99,,,-99.99,,2013-01-25 00:10:00,
2013-01-24 17:00:00,23.0,-99.9,-100.00,West,281,2.0,6.0,-999,-99.99,,,-99.99,,2013-01-25 01:00:00,
2013-01-24 17:02:00,23.0,-99.9,-100.00,WNW,296,1.0,5.0,-999,-99.99,,,-99.99,,2013-01-25 01:02:00,
2013-01-24 18:10:00,23.0,-99.9,-100.00,WNW,282,2.0,6.0,-999,-99.99,,,-99.99,,2013-01-25 02:10:00,
2013-01-24 19:02:00,23.0,-99.9,-100.00,WNW,282,2.0,6.0,-999,-99.99,,,-99.99,,2013-01-25 03:02:00,
2013-01-24 19:20:00,22.0,-99.9,-100.00,WNW,284,2.0,3.0,-999,-99.99,,,-99.99,,2013-01-25 03:20:00,
2013-01-24 20:02:00,22.0,-99.9,-100.00,WNW,284,2.0,3.0,-999,-99.99,,,-99.99,,2013-01-25 04:02:00,
2013-01-24 20:10:00,22.0,-99.9,-100.00,WNW,285,2.0,3.0,-999,-99.99,,,-99.99,,2013-01-25 04:10:00,
2013-01-24 20:12:00,22.0,-99.9,-100.00,WNW,284,2.0,3.0,-999,-99.99,,,-99.99,,2013-01-25 04:12:00,
2013-01-24 21:04:00,22.0,-99.9,-100.00,WNW,285,2.0,3.0,-999,-99.99,,,-99.99,,2013-01-25 05:04:00,
2013-01-24 22:02:00,22.0,-99.9,-100.00,WNW,285,1.0,5.0,-999,-99.99,,,-99.99,,2013-01-25 06:02:00,
2013-01-24 22:12:00,22.0,-99.9,-100.00,WNW,285,1.0,5.0,-999,-99.99,,,-99.99,,2013-01-25 06:12:00,
2013-01-24 23:02:00,22.0,-99.9,-100.00,West,278,0.0,1.0,-999,-99.99,,,-99.99,,2013-01-25 07:02:00,